Talitha — ZCAN7 — position and weather

sailwx.info

Track history (hours):
 
Tides and Currents Weather Stations Pressure Air Temp Water Temp Dewpoint Dewpoint Depression Visibility Wind Speed Wind Dir Waves Ship Positions

Talitha

Last reported at 2014-Oct-07 14:08 UTC. Time now 2014-Oct-30 12:24 UTC.
Position N 43°04' E 005°44'.
Warning: this ship's position is 22 days out of date.

Length 80 m; draft 4.7 m.

Type: Pleasure craft. MMSI: 310051000.

Date/timePositionNaut miles runAvg speedWind from/ knotsBaromVisibWave heightAir tempDewpointWater temp
2014-Oct-07 14:08N 43°04' E 005°44'914.5
2014-Oct-07 13:33N 43°02' E 005°55'9 9.4
2014-Oct-07 12:33N 43°02' E 006°08'0 0.0
2014-Oct-07 11:32N 43°02' E 006°08'8 8.3
2014-Oct-07 10:32N 42°58' E 006°18'2412.2
2014-Oct-07 08:33N 43°12' E 006°44'6 2.5
2014-Oct-07 06:11N 43°17' E 006°38'0 0.0
2014-Oct-07 01:11N 43°17' E 006°38'0 0.0
2014-Oct-07 00:32N 43°17' E 006°38'0 0.0
2014-Oct-06 17:32N 43°17' E 006°38'0 0.0
2014-Oct-06 16:32N 43°17' E 006°38'0 0.0
2014-Oct-06 15:32N 43°17' E 006°38'0 0.0
2014-Oct-06 14:32N 43°17' E 006°38'0 0.0
2014-Oct-06 13:32N 43°17' E 006°38'0 0.0
2014-Oct-06 12:20N 43°17' E 006°38'0 0.0
2014-Oct-05 16:25N 43°17' E 006°38'0 0.0
2014-Oct-05 13:16N 43°17' E 006°38'0 0.0
2014-Oct-05 10:06N 43°17' E 006°38'0 0.0
2014-Oct-05 09:24N 43°17' E 006°38'0 0.0
2014-Oct-05 08:24N 43°17' E 006°38'0 0.0
2014-Oct-05 06:15N 43°17' E 006°38'0 0.0
2014-Oct-04 18:18N 43°17' E 006°38'0 0.0
2014-Oct-04 17:30N 43°17' E 006°38'0 0.0
2014-Oct-04 16:30N 43°17' E 006°38'0 0.0
2014-Oct-04 15:24N 43°17' E 006°38'0 0.0
2014-Oct-04 13:18N 43°17' E 006°38'0 0.0
2014-Oct-04 12:30N 43°17' E 006°38'0 0.0
2014-Oct-04 09:12N 43°17' E 006°38'0 0.0
2014-Oct-04 00:24N 43°17' E 006°38'0 0.0
2014-Oct-03 23:06N 43°17' E 006°38'0 0.0
2014-Oct-03 22:30N 43°17' E 006°38'0 0.0
2014-Oct-03 20:30N 43°17' E 006°38'0 0.0
2014-Oct-03 16:15N 43°17' E 006°38'0 0.0
2014-Oct-03 14:24N 43°17' E 006°38'0 0.0
2014-Oct-03 13:12N 43°17' E 006°38'0 0.0
2014-Oct-03 12:24N 43°17' E 006°38'0 0.0
2014-Oct-03 08:18N 43°17' E 006°38'1 0.1
2014-Oct-02 18:28N 43°17' E 006°40'0 0.0
2014-Oct-02 17:28N 43°17' E 006°40'0 0.0
2014-Oct-02 16:19N 43°17' E 006°40'0 0.0
2014-Oct-02 15:28N 43°17' E 006°40'0 0.0
2014-Oct-02 13:31N 43°17' E 006°40'0 0.0
2014-Oct-02 12:16N 43°17' E 006°40'0 0.0
2014-Oct-02 11:06N 43°17' E 006°40'2 1.0
2014-Oct-02 09:25N 43°17' E 006°38'0 0.0
2014-Oct-02 08:28N 43°17' E 006°38'0 0.0
2014-Oct-02 07:10N 43°17' E 006°38'0 0.0
2014-Oct-02 05:10N 43°17' E 006°38'0 0.0
2014-Oct-02 02:16N 43°17' E 006°38'0 0.0
2014-Oct-02 01:34N 43°17' E 006°38'0 0.0
2014-Oct-01 22:33N 43°17' E 006°38'0 0.0
2014-Oct-01 21:09N 43°17' E 006°38'0 0.0
2014-Oct-01 19:21N 43°17' E 006°38'0 0.0
2014-Oct-01 18:27N 43°17' E 006°38'0 0.0
2014-Oct-01 17:27N 43°17' E 006°38'0 0.0
2014-Oct-01 16:33N 43°17' E 006°38'0 0.0
2014-Oct-01 15:33N 43°17' E 006°38'0 0.0
2014-Oct-01 14:33N 43°17' E 006°38'0 0.0
2014-Oct-01 13:27N 43°17' E 006°38'0 0.0
2014-Oct-01 11:33N 43°17' E 006°38'0 0.0
2014-Oct-01 08:27N 43°17' E 006°38'0 0.0
2014-Sep-30 12:17N 43°17' E 006°37'0 0.0
2014-Sep-30 11:32N 43°17' E 006°37'0 0.0
2014-Sep-30 10:14N 43°16' E 006°37'0 0.0
2014-Sep-30 09:20N 43°17' E 006°37'0 0.0
2014-Sep-30 08:11N 43°16' E 006°37'0 0.0
2014-Sep-30 07:12N 43°16' E 006°37'0 0.0
2014-Sep-30 06:30N 43°17' E 006°37'0 0.0
2014-Sep-30 05:05N 43°16' E 006°38'0 0.0
2014-Sep-30 01:29N 43°16' E 006°37'0 0.0
2014-Sep-29 23:32N 43°17' E 006°37'0 0.0
2014-Sep-29 22:17N 43°17' E 006°37'0 0.0
2014-Sep-29 21:23N 43°17' E 006°37'0 0.0
2014-Sep-29 20:26N 43°17' E 006°37'0 0.0
2014-Sep-29 19:32N 43°16' E 006°37'0 0.0
2014-Sep-29 17:17N 43°17' E 006°37'0 0.1
2014-Sep-29 16:26N 43°17' E 006°38'1 1.5
2014-Sep-29 15:27N 43°16' E 006°40'0 0.0
2014-Sep-29 14:24N 43°16' E 006°40'0 0.0
2014-Sep-29 13:33N 43°16' E 006°40'0 0.0
2014-Sep-29 12:33N 43°16' E 006°40'0 0.0
2014-Sep-29 11:33N 43°16' E 006°40'0 0.0
2014-Sep-29 10:33N 43°16' E 006°40'0 0.0
2014-Sep-29 09:27N 43°16' E 006°40'0 0.0
2014-Sep-29 08:27N 43°16' E 006°40'1 1.3
2014-Sep-29 07:20N 43°17' E 006°38'0 0.0
2014-Sep-29 05:17N 43°17' E 006°38'0 0.0
2014-Sep-29 04:11N 43°17' E 006°38'0 0.0
2014-Sep-29 03:23N 43°17' E 006°38'0 0.0
2014-Sep-29 02:11N 43°17' E 006°38'0 0.0
2014-Sep-29 01:32N 43°17' E 006°38'0 0.0
2014-Sep-29 00:17N 43°17' E 006°38'0 0.0
2014-Sep-28 23:29N 43°17' E 006°38'0 0.0
2014-Sep-28 22:26N 43°17' E 006°38'0 0.0
2014-Sep-28 21:29N 43°17' E 006°38'0 0.0
2014-Sep-28 19:23N 43°17' E 006°38'0 0.0
2014-Sep-28 17:23N 43°17' E 006°38'0 0.0
2014-Sep-28 16:29N 43°17' E 006°38'0 0.0
2014-Sep-28 15:29N 43°17' E 006°38'0 0.0
2014-Sep-28 14:23N 43°17' E 006°38'810.0
2014-Sep-28 13:34N 43°21' E 006°47'1312.6
2014-Sep-28 12:33N 43°28' E 007°02'1312.6
2014-Sep-28 11:33N 43°37' E 007°14'5 4.9
2014-Sep-28 10:31N 43°42' E 007°17'0 0.0
2014-Sep-28 06:13N 43°42' E 007°17'0 0.0
2014-Sep-28 05:31N 43°42' E 007°17'0 0.0
2014-Sep-28 04:25N 43°42' E 007°17'0 0.0
2014-Sep-28 03:31N 43°42' E 007°17'0 0.0
2014-Sep-28 02:31N 43°42' E 007°17'0 0.0
2014-Sep-28 01:31N 43°42' E 007°17'0 0.0
2014-Sep-28 00:31N 43°42' E 007°17'0 0.0
2014-Sep-27 23:25N 43°42' E 007°17'0 0.0
2014-Sep-27 22:31N 43°42' E 007°17'0 0.0
2014-Sep-27 21:31N 43°42' E 007°17'0 0.0
2014-Sep-27 20:25N 43°42' E 007°17'0 0.0
2014-Sep-27 19:31N 43°42' E 007°17'0 0.0
2014-Sep-27 18:25N 43°42' E 007°17'0 0.0
2014-Sep-27 17:19N 43°42' E 007°17'0 0.0
2014-Sep-27 16:25N 43°42' E 007°17'0 0.0
2014-Sep-27 15:31N 43°42' E 007°17'0 0.0
2014-Sep-27 14:19N 43°42' E 007°17'  
Track history (hours):
 
Tides and Currents Weather Stations Pressure Air Temp Water Temp Dewpoint Dewpoint Depression Visibility Wind Speed Wind Dir Waves Ship Positions

Talitha

Last reported at 2014-Oct-07 14:08 UTC. Time now 2014-Oct-30 12:24 UTC.
Position N 43°04' E 005°44'.
Warning: this ship's position is 22 days out of date.

Length 80 m; draft 4.7 m.

Type: Pleasure craft. MMSI: 310051000.

Date/timePositionNaut miles runAvg speedWind from/ knotsBaromVisibWave heightAir tempDewpointWater temp
2014-Oct-07 14:08N 43°04' E 005°44'914.5
2014-Oct-07 13:33N 43°02' E 005°55'9 9.4
2014-Oct-07 12:33N 43°02' E 006°08'0 0.0
2014-Oct-07 11:32N 43°02' E 006°08'8 8.3
2014-Oct-07 10:32N 42°58' E 006°18'2412.2
2014-Oct-07 08:33N 43°12' E 006°44'6 2.5
2014-Oct-07 06:11N 43°17' E 006°38'0 0.0
2014-Oct-07 01:11N 43°17' E 006°38'0 0.0
2014-Oct-07 00:32N 43°17' E 006°38'0 0.0
2014-Oct-06 17:32N 43°17' E 006°38'0 0.0
2014-Oct-06 16:32N 43°17' E 006°38'0 0.0
2014-Oct-06 15:32N 43°17' E 006°38'0 0.0
2014-Oct-06 14:32N 43°17' E 006°38'0 0.0
2014-Oct-06 13:32N 43°17' E 006°38'0 0.0
2014-Oct-06 12:20N 43°17' E 006°38'0 0.0
2014-Oct-05 16:25N 43°17' E 006°38'0 0.0
2014-Oct-05 13:16N 43°17' E 006°38'0 0.0
2014-Oct-05 10:06N 43°17' E 006°38'0 0.0
2014-Oct-05 09:24N 43°17' E 006°38'0 0.0
2014-Oct-05 08:24N 43°17' E 006°38'0 0.0
2014-Oct-05 06:15N 43°17' E 006°38'0 0.0
2014-Oct-04 18:18N 43°17' E 006°38'0 0.0
2014-Oct-04 17:30N 43°17' E 006°38'0 0.0
2014-Oct-04 16:30N 43°17' E 006°38'0 0.0
2014-Oct-04 15:24N 43°17' E 006°38'0 0.0
2014-Oct-04 13:18N 43°17' E 006°38'0 0.0
2014-Oct-04 12:30N 43°17' E 006°38'0 0.0
2014-Oct-04 09:12N 43°17' E 006°38'0 0.0
2014-Oct-04 00:24N 43°17' E 006°38'0 0.0
2014-Oct-03 23:06N 43°17' E 006°38'0 0.0
2014-Oct-03 22:30N 43°17' E 006°38'0 0.0
2014-Oct-03 20:30N 43°17' E 006°38'0 0.0
2014-Oct-03 16:15N 43°17' E 006°38'0 0.0
2014-Oct-03 14:24N 43°17' E 006°38'0 0.0
2014-Oct-03 13:12N 43°17' E 006°38'0 0.0
2014-Oct-03 12:24N 43°17' E 006°38'0 0.0
2014-Oct-03 08:18N 43°17' E 006°38'1 0.1
2014-Oct-02 18:28N 43°17' E 006°40'0 0.0
2014-Oct-02 17:28N 43°17' E 006°40'0 0.0
2014-Oct-02 16:19N 43°17' E 006°40'0 0.0
2014-Oct-02 15:28N 43°17' E 006°40'0 0.0
2014-Oct-02 13:31N 43°17' E 006°40'0 0.0
2014-Oct-02 12:16N 43°17' E 006°40'0 0.0
2014-Oct-02 11:06N 43°17' E 006°40'2 1.0
2014-Oct-02 09:25N 43°17' E 006°38'0 0.0
2014-Oct-02 08:28N 43°17' E 006°38'0 0.0
2014-Oct-02 07:10N 43°17' E 006°38'0 0.0
2014-Oct-02 05:10N 43°17' E 006°38'0 0.0
2014-Oct-02 02:16N 43°17' E 006°38'0 0.0
2014-Oct-02 01:34N 43°17' E 006°38'0 0.0
2014-Oct-01 22:33N 43°17' E 006°38'0 0.0
2014-Oct-01 21:09N 43°17' E 006°38'0 0.0
2014-Oct-01 19:21N 43°17' E 006°38'0 0.0
2014-Oct-01 18:27N 43°17' E 006°38'0 0.0
2014-Oct-01 17:27N 43°17' E 006°38'0 0.0
2014-Oct-01 16:33N 43°17' E 006°38'0 0.0
2014-Oct-01 15:33N 43°17' E 006°38'0 0.0
2014-Oct-01 14:33N 43°17' E 006°38'0 0.0
2014-Oct-01 13:27N 43°17' E 006°38'0 0.0
2014-Oct-01 11:33N 43°17' E 006°38'0 0.0
2014-Oct-01 08:27N 43°17' E 006°38'0 0.0
2014-Sep-30 12:17N 43°17' E 006°37'0 0.0
2014-Sep-30 11:32N 43°17' E 006°37'0 0.0
2014-Sep-30 10:14N 43°16' E 006°37'0 0.0
2014-Sep-30 09:20N 43°17' E 006°37'0 0.0
2014-Sep-30 08:11N 43°16' E 006°37'0 0.0
2014-Sep-30 07:12N 43°16' E 006°37'0 0.0
2014-Sep-30 06:30N 43°17' E 006°37'0 0.0
2014-Sep-30 05:05N 43°16' E 006°38'0 0.0
2014-Sep-30 01:29N 43°16' E 006°37'0 0.0
2014-Sep-29 23:32N 43°17' E 006°37'0 0.0
2014-Sep-29 22:17N 43°17' E 006°37'0 0.0
2014-Sep-29 21:23N 43°17' E 006°37'0 0.0
2014-Sep-29 20:26N 43°17' E 006°37'0 0.0
2014-Sep-29 19:32N 43°16' E 006°37'0 0.0
2014-Sep-29 17:17N 43°17' E 006°37'0 0.1
2014-Sep-29 16:26N 43°17' E 006°38'1 1.5
2014-Sep-29 15:27N 43°16' E 006°40'0 0.0
2014-Sep-29 14:24N 43°16' E 006°40'0 0.0
2014-Sep-29 13:33N 43°16' E 006°40'0 0.0
2014-Sep-29 12:33N 43°16' E 006°40'0 0.0
2014-Sep-29 11:33N 43°16' E 006°40'0 0.0
2014-Sep-29 10:33N 43°16' E 006°40'0 0.0
2014-Sep-29 09:27N 43°16' E 006°40'0 0.0
2014-Sep-29 08:27N 43°16' E 006°40'1 1.3
2014-Sep-29 07:20N 43°17' E 006°38'0 0.0
2014-Sep-29 05:17N 43°17' E 006°38'0 0.0
2014-Sep-29 04:11N 43°17' E 006°38'0 0.0
2014-Sep-29 03:23N 43°17' E 006°38'0 0.0
2014-Sep-29 02:11N 43°17' E 006°38'0 0.0
2014-Sep-29 01:32N 43°17' E 006°38'0 0.0
2014-Sep-29 00:17N 43°17' E 006°38'0 0.0
2014-Sep-28 23:29N 43°17' E 006°38'0 0.0
2014-Sep-28 22:26N 43°17' E 006°38'0 0.0
2014-Sep-28 21:29N 43°17' E 006°38'0 0.0
2014-Sep-28 19:23N 43°17' E 006°38'0 0.0
2014-Sep-28 17:23N 43°17' E 006°38'0 0.0
2014-Sep-28 16:29N 43°17' E 006°38'0 0.0
2014-Sep-28 15:29N 43°17' E 006°38'0 0.0
2014-Sep-28 14:23N 43°17' E 006°38'810.0
2014-Sep-28 13:34N 43°21' E 006°47'1312.6
2014-Sep-28 12:33N 43°28' E 007°02'1312.6
2014-Sep-28 11:33N 43°37' E 007°14'5 4.9
2014-Sep-28 10:31N 43°42' E 007°17'0 0.0
2014-Sep-28 06:13N 43°42' E 007°17'0 0.0
2014-Sep-28 05:31N 43°42' E 007°17'0 0.0
2014-Sep-28 04:25N 43°42' E 007°17'0 0.0
2014-Sep-28 03:31N 43°42' E 007°17'0 0.0
2014-Sep-28 02:31N 43°42' E 007°17'0 0.0
2014-Sep-28 01:31N 43°42' E 007°17'0 0.0
2014-Sep-28 00:31N 43°42' E 007°17'0 0.0
2014-Sep-27 23:25N 43°42' E 007°17'0 0.0
2014-Sep-27 22:31N 43°42' E 007°17'0 0.0
2014-Sep-27 21:31N 43°42' E 007°17'0 0.0
2014-Sep-27 20:25N 43°42' E 007°17'0 0.0
2014-Sep-27 19:31N 43°42' E 007°17'0 0.0
2014-Sep-27 18:25N 43°42' E 007°17'0 0.0
2014-Sep-27 17:19N 43°42' E 007°17'0 0.0
2014-Sep-27 16:25N 43°42' E 007°17'0 0.0
2014-Sep-27 15:31N 43°42' E 007°17'0 0.0
2014-Sep-27 14:19N 43°42' E 007°17'  

Dump ship's entire track history